Location: Sternwarte ZA, Rosenfeld-Brittheim
(48.2889°N, 8.6789°E)
Time: 10:01:35
(UTC+02:00)

Envisat - Visible Passes

Search period start: 21 October 2018 00:00
Search period end: 30 October 2018 23:00
Orbit: 764 x 766 km, 98.2° (Epoch: 21 October)

Date Brightness Start Highest point End Pass type
(mag) Time Alt. Az. Time Alt. Az. Time Alt. Az.
21 Oct 3.2 19:40:33 10° SE 19:45:24 48° ENE 19:50:17 10° N visible
21 Oct 5.0 21:20:29 10° SSW 21:24:40 26° W 21:28:52 10° NW visible
22 Oct 4.0 19:04:51 10° ESE 19:08:56 25° ENE 19:13:03 10° N visible
22 Oct 3.7 20:42:44 10° S 20:47:40 52° W 20:52:39 10° NNW visible
23 Oct 2.9 20:05:49 10° SSE 20:10:53 78° ENE 20:16:00 10° NNW visible
23 Oct 5.7 21:47:32 10° SW 21:50:31 16° W 21:53:30 10° NW visible
24 Oct 3.4 19:29:35 10° SE 19:34:17 39° ENE 19:39:00 10° N visible
24 Oct 4.7 21:08:54 10° SSW 21:13:22 31° W 21:17:55 10° NNW visible
25 Oct 4.2 18:54:08 10° ESE 18:57:52 21° ENE 19:01:38 10° NNE visible
25 Oct 3.4 20:31:25 10° S 20:36:27 64° WSW 20:41:32 10° NNW visible
26 Oct 2.9 19:54:42 10° SSE 19:59:43 64° ENE 20:04:46 10° N visible
26 Oct 5.4 21:35:36 10° SW 21:39:12 19° W 21:42:48 10° NW visible
27 Oct 3.7 19:18:42 10° SE 19:23:11 32° ENE 19:27:40 10° N visible
27 Oct 4.3 20:57:24 10° SSW 21:02:07 38° W 21:06:53 10° NNW visible
28 Oct 4.4 17:43:31 10° E 17:46:49 18° ENE 17:50:08 10° NNE visible
28 Oct 3.0 19:20:10 10° S 19:25:15 79° WSW 19:30:22 10° NNW visible
28 Oct 6.0 21:03:36 10° WSW 21:05:06 11° W 21:06:38 10° WNW visible
29 Oct 3.1 18:43:40 10° SE 18:48:34 52° ENE 18:53:30 10° N visible
29 Oct 5.1 20:23:51 10° SW 20:27:54 24° W 20:31:58 10° NW visible
30 Oct 3.9 18:07:52 10° ESE 18:12:05 27° ENE 18:16:19 10° N visible
30 Oct 3.9 19:45:59 10° S 19:50:53 47° W 19:55:48 10° NNW visible
